Weather WX

World > North America > United States > Mississippi

Movella, Mississippi Regional Weather

Lat: 30.76N, Lon: 88.51W
Wx Zone: MSZ079
Warning FLW WEATHER ALERT - (More Info. Click Here) Warning
Feedback

Movella, MS Regional Weather

Expires:201906200500;;765815
ASUS44 KJAN 200410
RWRMS 

MISSISSIPPI HOURLY WEATHER ROUNDUP
NATIONAL WEATHER SERVICE JACKSON MS
1100 PM CDT WED JUN 19 2019

NOTE: "FAIR: INDICATES FEW OR NO CLOUDS BELOW 12,000 FEET WITH NO
SIGNIFICANT WEATHER AND/OR OBSTRUCTIONS TO VISIBILITY.


MSZ059>079-200500-
SOUTH MISSISSIPPI
  
CITY           SKY/WX    TMP DP  RH WIND       PRES   REMARKS
HATTIESBURG    FAIR      81  74  79 S8        29.85R                  
LAUREL         CLEAR     80  74  82 S7        29.83R                  
MCCOMB         HVY RAIN  81  73  76 S8        29.84R                  
NATCHEZ        FAIR      80  75  84 S5        29.82R                  
PINE BELT      FAIR      80  75  84 S6        29.85R                  
$$


SKY/WX - Weather  TMP - Temperature  DP - Dew Point  RH - Relative Humidity
WIND - Wind Direction/Speed PRES - Barometric Pressure VSB - Visibility
WCI - Wind Chill Index E13G22 Wind - East Wind 13 mph/Gusts of 22 mph